Weather History for Hutchinson, KS

Change the Weather History Date:

Monday, April 1, 2013

  Actual Average Record
Temperature  
Mean Temperature 42 °F -  
Max Temperature 51 °F 60 °F 87 °F (2002)
Min Temperature 35 °F 36 °F 28 °F (2009)
Degree Days  
Heating Degree Days 22    
Moisture  
Dew Point 27 °F    
Average Humidity 62    
Maximum Humidity 82    
Minimum Humidity 45    
Precipitation  
Precipitation 0.08 in - - ()
Sea Level Pressure  
Sea Level Pressure 30.19 in    
Wind  
Wind Speed 9 mph (NE)    
Max Wind Speed 17 mph    
Max Gust Speed 29 mph    
Visibility 10 miles    
Events Rain    
Averages and records for this station are not official NWS values.
T = Trace of Precipitation, MM = Missing Value Source: NWS Daily Summary

Daily Weather History Graph

Daily Weather History Graph

Search for Another Location

Airport:

Trip Planner

Search our weather history database for the weather conditions in past years. The results will help you decide how hot, cold, wet, or windy it might be!

Date:

Astronomy

Apr. 01, 2013 Rise Set
Actual Time 7:16 AM CDT 7:54 PM CDT
Civil Twilight 6:49 AM CDT 8:21 PM CDT
Nautical Twilight 6:18 AM CDT 8:52 PM CDT
Astronomical Twilight 5:46 AM CDT 9:25 PM CDT
Moon 1:00 AM CDT (4/1) 11:08 AM CDT (4/1)
Length of Visible Light 13h 31m
Length of Day
12h 38m
Waning Gibbous, 67% of the Moon is Illuminated
Apr 1
Waning Gibbous
Apr 2
Last Quarter
Apr 10
New
Apr 18
First Quarter
Apr 25
Full

Hourly Weather History & Observations

Time (CDT) Temp. Windchill Dew Point Humidity Pressure Visibility Wind Dir Wind Speed Gust Speed Precip Events Conditions
12:52 AM 46.9 °F - 36.0 °F 66% 29.95 in 10.0 mi South 3.5 mph - N/A   Clear
1:52 AM 46.9 °F - 37.9 °F 71% 29.94 in 10.0 mi SSW 5.8 mph - N/A   Clear
2:52 AM 50.0 °F - 37.0 °F 61% 30.01 in 10.0 mi NNE 8.1 mph - N/A   Clear
3:52 AM 45.0 °F 38.2 °F 34.0 °F 65% 30.05 in 10.0 mi NNE 15.0 mph 21.9 mph N/A   Clear
4:52 AM 42.1 °F 34.9 °F 30.9 °F 65% 30.09 in 10.0 mi NE 13.8 mph 28.8 mph N/A   Clear
5:52 AM 39.9 °F 32.1 °F 32.0 °F 73% 30.13 in 10.0 mi NNE 13.8 mph 21.9 mph N/A   Clear
6:28 AM 39.2 °F 30.8 °F 33.8 °F 81% 30.17 in 10.0 mi NNE 15.0 mph 24.2 mph N/A   Mostly Cloudy
6:52 AM 39.9 °F 32.1 °F 33.1 °F 77% 30.16 in 10.0 mi NE 13.8 mph 24.2 mph N/A   Overcast
7:52 AM 37.0 °F 27.4 °F 32.0 °F 82% 30.19 in 10.0 mi NNE 17.3 mph 24.2 mph N/A   Overcast
8:52 AM 36.0 °F 26.7 °F 28.9 °F 76% 30.24 in 10.0 mi NNE 15.0 mph 25.3 mph N/A   Overcast
9:08 AM 35.6 °F 25.9 °F 26.6 °F 70% 30.25 in 10.0 mi NNE 16.1 mph 24.2 mph N/A   Overcast
9:31 AM 35.6 °F 28.6 °F 28.4 °F 75% 30.26 in 10.0 mi NE 9.2 mph 20.7 mph N/A   Overcast
9:52 AM 36.0 °F 26.0 °F 28.0 °F 73% 30.25 in 10.0 mi NE 17.3 mph 24.2 mph N/A   Overcast
10:41 AM 37.4 °F 29.3 °F 26.6 °F 65% 30.26 in 10.0 mi NE 12.7 mph 21.9 mph N/A   Overcast
10:52 AM 37.0 °F 29.8 °F 26.1 °F 65% 30.28 in 10.0 mi NE 10.4 mph 20.7 mph N/A   Overcast
11:52 AM 37.9 °F 30.0 °F 21.0 °F 51% 30.30 in 10.0 mi NNE 12.7 mph - N/A   Overcast
12:52 PM 37.9 °F 29.6 °F 19.9 °F 48% 30.27 in 10.0 mi NE 13.8 mph - N/A   Overcast
1:52 PM 39.0 °F 32.8 °F 19.0 °F 45% 30.25 in 10.0 mi NE 9.2 mph 21.9 mph N/A   Overcast
2:16 PM 39.2 °F 32.0 °F 19.4 °F 45% 30.24 in 10.0 mi NNE 11.5 mph 18.4 mph 0.00 in Rain Light Rain
2:52 PM 36.0 °F 31.1 °F 24.1 °F 62% 30.27 in 3.0 mi NE 5.8 mph - 0.07 in Rain Heavy Rain
3:52 PM 37.0 °F 32.4 °F 27.0 °F 67% 30.25 in 10.0 mi East 5.8 mph - 0.01 in Rain Light Rain
4:52 PM 39.9 °F 34.5 °F 23.0 °F 51% 30.23 in 10.0 mi ENE 8.1 mph - N/A   Overcast
5:52 PM 41.0 °F 37.1 °F 25.0 °F 53% 30.22 in 10.0 mi ENE 5.8 mph - N/A   Overcast
6:52 PM 41.0 °F 36.4 °F 24.1 °F 51% 30.21 in 10.0 mi ENE 6.9 mph - N/A   Overcast
7:52 PM 41.0 °F - 21.9 °F 47% 30.22 in 10.0 mi Calm Calm - N/A   Overcast
8:52 PM 41.0 °F 38.0 °F 21.9 °F 47% 30.23 in 10.0 mi NE 4.6 mph - N/A   Overcast
9:52 PM 41.0 °F - 25.0 °F 53% 30.25 in 10.0 mi Calm Calm - N/A   Overcast
10:52 PM 41.0 °F 37.1 °F 25.0 °F 53% 30.25 in 10.0 mi ENE 5.8 mph - N/A   Overcast
11:52 PM 41.0 °F 35.8 °F 23.0 °F 49% 30.23 in 10.0 mi NE 8.1 mph - N/A   Overcast